19990107,36
19990108,36
19990111,36
19990112,36
19990113,36
19990114,36
19990118,36
19990119,37
19990120,36
19990121,36
19990122,36
19990125,36
19990126,36
19990127,38
19990128,39
19990129,39
19990201,39
19990202,39
19990203,38
19990204,39
19990205,38
19990208,38
19990209,39
19990210,38
19990212,38
19990215,38
19990216,38
19990217,39
19990218,39
19990219,40
19990222,40
19990223,40
19990224,41
19990225,41
19990226,40
19990301,40
19990302,40
19990303,41
19990304,41
19990305,42
19990308,42
19990309,43
19990310,43
19990311,56
19990312,56
19990315,66
19990316,65
19990317,66
19990318,66
19990319,66
19990323,66
19990324,74
19990325,74
19990326,74
19990329,75
19990330,75
19990331,75
19990401,74
19990402,75
19990405,76
19990406,76
19990407,76
19990408,77
19990409,77
19990412,77
19990413,77
19990414,77
19990415,77
19990416,78
19990419,78
19990420,78
19990421,78
19990422,79
19990423,80
19990426,79
19990427,79
19990428,81
19990430,81
19990506,83
19990507,83
19990510,83
19990511,83
19990512,85
19990513,86
19990514,88
19990517,87
19990518,87
19990519,87
19990520,88
19990521,88
19990524,89
19990525,88
19990526,87
19990527,86
19990528,84
19990531,85
19990601,86
19990602,86
19990603,86
19990604,86
19990607,87
19990608,87
19990609,89
19990610,88
19990611,88
19990614,89
19990615,89
19990616,90
19990617,90
19990618,100
19990621,102
19990622,103
19990623,97
19990624,101
19990625,101
19990628,106
19990629,105
19990630,105
19990701,105
19990702,106
19990705,108
19990706,108
19990707,109
19990708,109
19990709,109
19990712,131
19990713,131
19990714,129
19990715,130
19990716,140
19990719,139
19990721,138
19990722,146
19990723,144
19990726,144
19990727,164
19990728,165
19990729,167
19990730,166
19990802,165
19990803,165
19990804,166
19990805,165
19990806,164
19990809,164
19990810,165
19990811,161
19990812,166
19990813,166
19990816,168
19990817,167
19990818,166
19990819,163
19990820,163
19990823,173
19990824,174
19990825,173
19990826,173
19990827,174
19990830,174
19990831,172
19990901,171
19990902,171
19990903,170
19990906,173
19990907,174
19990908,176
19990909,194
19990910,194
19990913,191
19990914,188
19990916,183
19990917,183
19990920,197
19990921,194
19990922,189
19990924,188
19990927,190
19990928,193
19990929,193
19990930,193
19991001,193
19991004,192
19991005,195
19991006,196
19991007,198
19991008,198
19991012,197
19991013,196
19991014,195
19991015,195
19991018,190
19991019,188
19991020,191
19991021,201
19991022,199
19991025,201
19991026,199
19991027,197
19991028,196
19991029,200
19991101,200
19991102,200
19991104,202
19991105,202
19991108,204
19991109,202
19991110,202
19991111,202
19991112,204
19991115,205
19991116,206
19991117,208
19991118,209
19991119,210
19991122,210
19991124,204
19991125,203
19991126,205
19991129,203
19991130,200
19991201,200
19991202,202
19991203,202
19991206,204
19991207,204
19991208,203
19991209,202
19991210,200
19991213,201
19991214,201
19991215,202
19991216,202
19991217,204
19991220,203
19991221,202
19991222,201
19991224,204
19991227,206
19991228,204
19991229,204
19991230,204
20000104,204
20000105,203
20000106,205
20000107,209
20000111,213
20000112,214
20000113,223
20000114,224
20000117,223
20000118,223
20000119,221
20000120,221
20000121,220
20000124,216
20000125,216
20000126,215
20000127,215
20000128,213
20000131,214
20000201,214
20000202,209
20000203,194
20000204,196
20000207,194
20000208,195
20000209,198
20000210,196
20000214,192
20000215,191
20000216,193
20000217,194
20000218,195
20000221,192
20000222,193
20000223,192
20000224,194
20000225,191
20000228,188
20000229,189
20000301,189
20000302,187
20000303,187
20000306,186
20000307,187
20000308,182
20000309,183
20000310,183
20000313,182
20000314,181
20000315,181
20000316,184
20000317,194
20000321,193
20000322,194
20000323,195
20000324,197
20000327,197
20000328,195
20000329,193
20000330,192
20000331,193
20000403,193
20000404,194
20000405,197
20000406,195
20000407,195
20000410,197
20000411,198
20000412,199
20000413,198
20000414,198
20000417,192
20000418,189
20000419,189
20000420,190
20000421,192
20000424,193
20000425,193
20000426,195
20000427,196
20000428,194
20000501,197
20000502,200
20000508,199
20000509,199
20000510,200
20000511,197
20000512,196
20000515,199
20000516,200
20000517,201
20000518,197
20000519,196
20000522,193
20000523,194
20000524,193
20000525,195
20000526,194
20000529,195
20000530,195
20000531,196
20000601,198
20000602,201
20000605,203
20000606,201
20000607,199
20000608,199
20000609,199
20000612,201
20000613,201
20000614,201
20000615,201
20000616,200
20000619,199
20000620,198
20000621,199
20000622,197
20000623,195
20000626,196
20000627,199
20000628,199
20000629,199
20000630,199
20000703,201
20000704,203
20000705,204
20000706,205
20000707,205
20000710,207
20000711,206
20000712,207
20000713,208
20000714,208
20000717,206
20000718,206
20000719,204
20000721,204
20000724,205
20000725,205
20000726,206
20000727,204
20000728,204
20000731,203
20000801,204
20000802,204
20000803,204
20000804,202
20000807,204
20000808,207
20000809,206
20000810,205
20000811,207
20000814,209
20000815,213
20000816,212
20000817,211
20000818,211
20000821,210
20000822,211
20000823,209
20000824,207
20000825,207
20000828,208
20000829,207
20000830,205
20000831,205
20000901,206
20000904,206
20000905,206
20000906,205
20000907,203
20000908,202
20000911,202
20000912,202
20000913,204
20000914,203
20000918,202
20000919,200
20000920,201
20000921,208
20000922,208
20000925,220
20000926,219
20000927,218
20000928,251
20000929,254
20001002,256
20001003,257
20001004,258
20001005,260
20001006,259
20001010,256
20001011,255
20001012,252
20001013,251
20001016,251
20001017,251
20001018,250
20001019,247
20001020,251
20001023,252
20001024,253
20001025,255
20001026,255
20001027,255
20001030,258
20001031,263
20001101,266
20001102,266
20001106,263
20001107,265
20001108,265
20001109,265
20001110,265
20001113,264
20001114,264
20001115,268
20001116,269
20001117,268
20001120,267
20001121,267
20001122,268
20001124,267
20001127,271
20001128,272
20001129,272
20001130,276
20001201,276
20001204,277
20001205,279
20001206,281
20001207,278
20001208,278
20001211,280
20001212,282
20001213,284
20001214,285
20001215,285
20001218,283
20001219,285
20001220,287
20001221,288
20001222,287
20001225,292
20001226,293
20001227,297
20001228,302
20001229,314
20010104,297
20010105,304
20010109,302
20010110,303
20010111,301
20010112,305
20010115,306
20010116,307
20010117,304
20010118,311
20010119,307
20010122,301
20010123,302
20010124,313
20010125,315
20010126,314
20010129,316
20010130,315
20010131,317
20010201,321
20010202,321
20010205,321
20010206,319
20010207,318
20010208,320
20010209,320
20010213,322
20010214,321
20010215,279
20010216,274
20010219,274
20010220,276
20010221,273
20010222,273
20010223,274
20010226,271
20010227,275
20010228,275
20010301,276
20010302,276
20010305,282
20010306,282
20010307,283
20010308,286
20010309,286
20010312,285
20010313,279
20010314,281
20010315,279
20010316,283
20010319,280
20010321,281
20010322,278
20010323,274
20010326,278
20010327,281
20010328,276
20010329,261
20010330,264
20010402,273
20010403,274
20010404,270
20010405,271
20010406,274
20010409,271
20010410,274
20010411,277
20010412,276
20010413,276
20010416,277
20010417,276
20010418,275
20010419,278
20010420,277
20010423,277
20010424,275
20010425,276
20010426,278
20010427,284
20010501,285
20010502,285
20010507,283
20010508,282
20010509,280
20010510,279
20010511,280
20010514,278
20010515,279
20010516,282
20010517,286
20010518,286
20010521,288
20010522,287
20010523,285
20010524,278
20010525,278
20010528,279
20010529,281
20010530,279
20010531,277
20010601,276
20010604,277
20010605,277
20010606,282
20010607,279
20010608,280
20010611,282
20010612,281
20010613,281
20010614,282
20010615,279
20010618,281
20010619,280
20010620,280
20010621,283
20010622,286
20010625,280
20010626,283
20010627,282
20010628,282
20010629,285
20010702,289
20010703,296
20010704,296
20010705,296
20010706,295
20010709,293
20010710,293
20010711,291
20010712,289
20010713,291
20010716,294
20010717,293
20010718,292
20010719,291
20010723,289
20010724,292
20010725,292
20010726,292
20010727,293
20010730,293
20010731,298
20010801,301
20010802,303
20010803,301
20010806,299
20010807,298
20010808,297
20010809,293
20010810,291
20010813,293
20010814,295
20010815,294
20010816,290
20010817,288
20010820,286
20010821,288
20010822,288
20010823,288
20010824,287
20010827,290
20010828,289
20010829,288
20010830,286
20010831,282
20010903,281
20010904,280
20010905,282
20010906,283
20010907,279
20010910,274
20010911,269
20010912,260
20010913,262
20010914,263
20010917,256
20010918,254
20010919,253
20010920,250
20010921,240
20010925,244
20010926,245
20010927,247
20010928,252
20011001,258
20011002,256
20011003,259
20011004,262
20011005,264
20011009,262
20011010,262
20011011,266
20011012,270
20011015,269
20011016,266
20011017,269
20011018,267
20011019,265
20011022,264
20011023,266
20011024,267
20011025,269
20011026,268
20011029,269
20011030,266
20011031,262
20011101,263
20011102,266
20011105,266
20011106,269
20011107,268
20011108,269
20011109,268
20011112,267
20011113,265
20011114,270
20011115,273
20011116,274
20011119,275
20011120,278
20011121,276
20011122,276
20011126,280
20011127,284
20011128,280
20011129,276
20011130,279
20011203,279
20011204,279
20011205,282
20011206,286
20011207,288
20011210,287
20011211,284
20011212,284
20011213,283
20011214,280
20011217,285
20011218,292
20011219,294
20011220,294
20011221,294
20011225,295
20011226,297
20011227,300
20011228,305
20020104,309
20020107,310
20020108,311
20020109,312
20020110,310
20020111,308
20020115,304
20020116,306
20020117,306
20020118,309
20020121,310
20020122,311
20020123,312
20020124,314
20020125,317
20020128,316
20020129,313
20020130,310
20020131,310
20020201,318
20020204,314
20020205,309
20020206,311
20020207,311
20020208,313
20020212,318
20020213,316
20020214,318
20020215,321
20020218,321
20020219,319
20020220,317
20020221,320
20020222,322
20020225,321
20020226,323
20020227,327
20020228,329
20020301,328
20020304,332
20020305,335
20020306,333
20020307,334
20020308,327
20020311,329
20020312,331
20020313,331
20020314,330
20020315,331
20020318,334
20020319,340
20020320,344
20020322,340
20020325,350
20020326,354
20020327,343
20020328,345
20020329,368
20020401,368
20020402,370
20020403,364
20020404,363
20020405,359
20020408,359
20020409,356
20020410,355
20020411,359
20020412,356
20020415,360
20020416,359
20020417,363
20020418,362
20020419,360
20020422,361
20020423,358
20020424,359
20020425,356
20020426,355
20020430,349
20020501,352
20020502,353
20020507,349
20020508,349
20020509,356
20020510,356
20020513,350
20020514,354
20020515,359
20020516,360
20020517,361
20020520,357
20020521,354
20020522,349
20020523,352
20020524,356
20020527,354
20020528,354
20020529,353
20020530,351
20020531,348
20020603,352
20020604,346
20020605,344
20020606,344
20020607,341
20020610,340
20020611,342
20020612,342
20020613,339
20020614,334
20020617,330
20020618,337
20020619,336
20020620,334
20020621,328
20020624,322
20020625,318
20020626,319
20020627,314
20020628,315
20020701,323
20020702,321
20020703,318
20020704,313
20020705,316
20020708,322
20020709,321
20020710,315
20020711,306
20020712,300
20020715,298
20020716,293
20020717,290
20020718,294
20020719,294
20020722,285
20020723,276
20020724,272
20020725,273
20020726,278
20020729,282
20020730,297
20020731,298
20020801,299
20020802,291
20020805,287
20020806,281
20020807,289
20020808,289
20020809,298
20020812,298
20020813,292
20020814,290
20020815,290
20020816,297
20020819,298
20020820,307
20020821,302
20020822,306
20020823,310
20020826,306
20020827,306
20020828,305
20020829,299
20020830,296
20020902,299
20020903,296
20020904,286
20020905,290
20020906,289
20020909,293
20020910,292
20020911,297
20020912,302
20020913,293
20020917,295
20020918,290
20020919,285
20020920,279
20020924,277
20020925,272
20020926,277
20020927,285
20020930,280
20021001,274
20021002,280
20021003,280
20021004,279
20021007,272
20021008,271
20021009,267
20021010,261
20021011,268
20021015,282
20021016,295
20021017,290
20021018,295
20021021,293
20021022,294
20021023,296
20021024,291
20021025,293
20021028,293
20021029,292
20021030,285
20021031,290
20021101,291
20021105,297
20021106,298
20021107,298
20021108,293
20021111,287
20021112,283
20021113,285
20021114,284
20021115,289
20021118,291
20021119,292
20021120,293
20021121,296
20021122,305
20021125,308
20021126,304
20021127,300
20021128,307
20021129,308
20021202,309
20021203,312
20021204,307
20021205,307
20021206,306
20021209,303
20021210,298
20021211,299
20021212,299
20021213,295
20021216,289
20021217,296
20021218,294
20021219,290
20021220,288
20021224,291
20021225,290
20021226,294
20021227,295
20021230,290
20030106,302
20030107,304
20030108,304
20030109,298
20030110,302
20030114,301
20030115,300
20030116,296
20030117,296
20030120,291
20030121,290
20030122,286
20030123,286
20030124,284
20030127,280
20030128,274
20030129,277
20030130,277
20030131,279
20030203,283
20030204,286
20030205,280
20030206,280
20030207,275
20030210,275
20030212,276
20030213,273
20030214,271
20030217,274
20030218,274
20030219,275
20030220,273
20030221,270
20030224,271
20030225,270
20030226,265
20030227,263
20030228,266
20030303,270
20030304,270
20030305,265
20030306,264
20030307,260
20030310,256
20030311,251
20030312,244
20030313,241
20030314,251
20030317,255
20030318,263
20030319,260
20030320,267
20030324,275
20030325,265
20030326,270
20030327,269
20030328,267
20030331,266
20030401,257
20030402,259
20030403,266
20030404,268
20030407,272
20030408,275
20030409,273
20030410,273
20030411,269
20030414,272
20030415,276
20030416,279
20030417,276
20030418,278
20030421,278
20030422,279
20030423,286
20030424,274
20030425,271
20030428,269
20030430,275
20030501,274
20030502,274
20030506,278
20030507,280
20030508,275
20030509,273
20030512,276
20030513,278
20030514,277
20030515,276
20030516,278
20030519,278
20030520,274
20030521,274
20030522,276
20030523,282
20030526,282
20030527,282
20030528,285
20030529,290
20030530,292
20030602,294
20030603,297
20030604,297
20030605,299
20030606,300
20030609,303
20030610,299
20030611,299
20030612,305
20030613,306
20030616,300
20030617,307
20030618,310
20030619,310
20030620,307
20030623,307
20030624,301
20030625,304
20030626,303
20030627,307
20030630,307
20030701,306
20030702,307
20030703,309
20030704,308
20030707,308
20030708,312
20030709,314
20030710,310
20030711,306
20030714,308
20030715,310
20030716,310
20030717,308
20030718,307
20030722,308
20030723,309
20030724,313
20030725,316
20030728,316
20030729,319
20030730,317
20030731,317
20030801,318
20030804,314
20030805,316
20030806,314
20030807,312
20030808,311
20030811,313
20030812,314
20030813,316
20030814,317
20030815,319
20030818,320
20030819,323
20030820,323
20030821,321
20030822,320
20030825,320
20030826,319
20030827,319
20030828,319
20030829,320
20030901,321
20030902,323
20030903,309
20030904,310
20030905,311
20030908,313
20030909,314
20030910,314
20030911,311
20030912,312
20030916,314
20030917,314
20030918,315
20030919,316
20030922,308
20030924,304
20030925,304
20030926,303
20030929,300
20030930,301
20031001,299
20031002,303
20031003,304
20031006,306
20031007,308
20031008,308
20031009,307
20031010,309
20031014,310
20031015,310
20031016,312
20031017,312
20031020,313
20031021,313
20031022,311
20031023,309
20031024,310
20031027,309
20031028,309
20031029,311
20031030,312
20031031,313
20031104,319
20031105,317
20031106,315
20031107,317
20031110,314
20031111,309
20031112,309
20031113,312
20031114,313
20031117,314
20031118,311
20031119,309
20031120,311
20031121,309
20031125,314
20031126,317
20031127,319
20031128,321
20031201,323
20031202,325
20031203,324
20031204,323
20031205,323
20031208,320
20031209,321
20031210,319
20031211,320
20031212,324
20031215,324
20031216,324
20031217,324
20031218,325
20031219,329
20031222,330
20031224,331
20031225,333
20031226,334
20031229,335
20031230,339
20040105,344
20040106,345
20040107,348
20040108,346
20040109,350
20040113,348
20040114,347
20040115,348
20040116,346
20040119,347
20040120,349
20040121,351
20040122,356
20040123,357
20040126,355
20040127,356
20040128,356
20040129,355
20040130,354
20040202,352
20040203,352
20040204,352
20040205,350
20040206,352
20040209,355
20040210,357
20040212,360
20040213,359
20040216,361
20040217,365
20040218,369
20040219,368
20040220,373
20040223,375
20040224,373
20040225,375
20040226,377
20040227,379
20040301,381
20040302,383
20040303,394
20040304,393
20040305,398
20040308,402
20040309,400
20040310,395
20040311,388
20040312,383
20040315,382
20040316,375
20040317,374
20040318,376
20040319,371
20040322,369
20040323,364
20040324,368
20040325,363
20040326,366
20040329,366
20040330,370
20040331,370
20040401,366
20040402,374
20040405,377
20040406,381
20040407,383
20040408,382
20040409,384
20040412,383
20040413,381
20040414,387
20040415,391
20040416,392
20040419,393
20040420,397
20040421,393
20040422,396
20040423,405
20040426,402
20040427,402
20040428,406
20040430,401
20040506,401
20040507,400
20040510,402
20040511,397
20040512,402
20040513,402
20040514,406
20040517,404
20040518,403
20040519,404
20040520,404
20040521,402
20040524,402
20040525,407
20040526,407
20040527,409
20040528,410
20040531,405
20040601,405
20040602,407
20040603,406
20040604,409
20040607,413
20040608,413
20040609,413
20040610,411
20040611,410
20040614,415
20040615,416
20040616,414
20040617,417
20040618,415
20040621,415
20040622,413
20040623,416
20040624,415
20040625,412
20040628,413
20040629,416
20040630,414
20040701,415
20040702,415
20040705,415
20040706,416
20040707,416
20040708,416
20040709,417
20040712,416
20040713,418
20040714,422
20040715,424
20040716,422
20040720,418
20040721,416
20040722,418
20040723,417
20040726,415
20040727,414
20040728,421
20040729,424
20040730,428
20040802,425
20040803,422
20040804,422
20040805,423
20040806,422
20040809,413
20040810,413
20040811,417
20040812,420
20040813,420
20040816,417
20040817,422
20040818,420
20040819,419
20040820,421
20040823,421
20040824,423
20040825,424
20040826,427
20040827,428
20040830,430
20040831,429
20040901,428
20040902,431
20040903,434
20040906,435
20040907,435
20040908,434
20040909,433
20040910,434
20040913,434
20040914,443
20040915,441
20040916,439
20040917,439
20040921,440
20040922,443
20040924,442
20040927,444
20040928,443
20040929,448
20040930,448
20041001,446
20041004,454
20041005,456
20041006,456
20041007,456
20041008,454
20041012,447
20041013,445
20041014,450
20041015,448
20041018,447
20041019,447
20041020,444
20041021,436
20041022,435
20041025,436
20041026,433
20041027,436
20041028,441
20041029,443
20041101,442
20041102,445
20041104,451
20041105,453
20041108,449
20041109,447
20041110,447
20041111,451
20041112,459
20041115,457
20041116,456
20041117,455
20041118,452
20041119,451
20041122,443
20041124,442
20041125,445
20041126,446
20041129,447
20041130,449
20041201,446
20041202,451
20041203,458
20041206,456
20041207,457
20041208,456
20041209,459
20041210,460
20041213,461
20041214,470
20041215,472
20041216,471
20041217,472
20041220,468
20041221,468
20041222,470
20041224,477
20041227,478
20041228,476
20041229,479
20041230,483
20050104,474
20050105,476
20050106,474
20050107,476
20050111,475
20050112,468
20050113,471
20050114,470
20050117,471
20050118,471
20050119,473
20050120,474
20050121,474
20050124,471
20050125,473
20050126,477
20050127,477
20050128,478
20050131,479
20050201,481
20050202,484
20050203,487
20050204,489
20050207,491
20050208,493
20050209,496
20050210,496
20050214,500
20050215,507
20050216,507
20050217,506
20050218,509
20050221,510
20050222,510
20050223,507
20050224,509
20050225,512
20050228,515
20050301,512
20050302,517
20050303,519
20050304,520
20050307,523
20050308,521
20050309,519
20050310,514
20050311,512
20050314,517
20050315,520
20050316,520
20050317,517
20050318,519
20050322,516
20050323,516
20050324,522
20050325,523
20050328,524
20050329,527
20050330,529
20050331,531
20050401,532
20050404,531
20050405,521
20050406,526
20050407,529
20050408,530
20050411,528
20050412,525
20050413,529
20050414,527
20050415,527
20050418,518
20050419,515
20050420,515
20050421,510
20050422,515
20050425,514
20050426,515
20050427,516
20050428,517
20050502,513
20050506,519
20050509,521
20050510,524
20050511,521
20050512,526
20050513,528
20050516,527
20050517,525
20050518,529
20050519,534
20050520,538
20050523,539
20050524,539
20050525,542
20050526,542
20050527,544
20050530,545
20050531,545
20050601,543
20050602,547
20050603,546
20050606,542
20050607,539
20050608,542
20050609,542
20050610,544
20050613,548
20050614,559
20050615,557
20050616,558
20050617,587
20050620,591
20050621,590
20050622,588
20050623,588
20050624,591
20050627,589
20050628,588
20050629,595
20050630,599
20050701,598
20050704,601
20050705,606
20050706,609
20050707,612
20050708,608
20050711,612
20050712,614
20050713,619
20050714,624
20050715,627
20050719,622
20050720,628
20050721,630
20050722,621
20050725,628
20050726,628
20050727,631
20050728,635
20050729,642
20050801,640
20050802,640
20050803,644
20050804,645
20050805,642
20050808,643
20050809,643
20050810,646
20050811,643
20050812,650
20050815,641
20050816,638
20050817,636
20050818,639
20050819,638
20050822,642
20050823,642
20050824,645
20050825,644
20050826,642
20050829,637
20050830,637
20050831,640
20050901,644
20050902,646
20050905,646
20050906,644
20050907,649
20050908,653
20050909,654
20050912,651
20050913,653
20050914,655
20050915,656
20050916,659
20050920,665
20050921,665
20050922,658
20050926,665
20050927,668
20050928,672
20050929,676
20050930,676
20051003,680
20051004,683
20051005,700
20051006,694
20051007,688
20051011,686
20051012,685
20051013,689
20051014,685
20051017,686
20051018,692
20051019,687
20051020,687
20051021,683
20051024,684
20051025,695
20051026,694
20051027,698
20051028,691
20051031,693
20051101,702
20051102,703
20051104,715
20051107,716
20051108,719
20051109,711
20051110,705
20051111,709
20051114,718
20051115,724
20051116,721
20051117,720
20051118,726
20051121,733
20051122,732
20051124,741
20051125,742
20051128,742
20051129,738
20051130,742
20051201,740
20051202,753
20051205,759
20051206,759
20051207,754
20051208,750
20051209,716
20051212,718
20051213,717
20051214,724
20051215,714
20051216,700
20051219,705
20051220,707
20051221,711
20051222,712
20051226,700
20051227,714
20051228,716
20051229,720
20051230,721
20060104,716
20060105,725
20060106,730
20060110,727
20060111,716
20060112,726
20060113,725
20060116,719
20060117,722
20060118,719
20060119,716
20060120,720
20060123,713
20060124,712
20060125,716
20060126,721
20060127,731
20060130,740
20060131,742
20060201,739
20060202,746
20060203,743
20060206,742
20060207,743
20060208,734
20060209,739
20060210,747
20060213,736
20060214,742
20060215,746
20060216,747
20060217,753
20060220,753
20060221,755
20060222,755
20060223,762
20060224,750
20060227,747
20060228,749
20060301,745
20060302,752
20060303,754
20060306,758
20060307,760
20060308,757
20060309,759
20060310,757
20060313,766
20060314,773
20060315,774
20060316,777
20060317,778
20060320,775
20060322,777
20060323,778
20060324,784
20060327,782
20060328,772
20060329,780
20060330,783
20060331,785
20060403,789
20060404,793
20060405,801
20060406,807
20060407,794
20060410,786
20060411,790
20060412,787
20060413,789
20060414,793
20060417,791
20060418,792
20060419,794
20060420,802
20060421,805
20060424,797
20060425,789
20060426,791
20060427,794
20060428,796
20060501,795
20060502,794
20060508,798
20060509,792
20060510,793
20060511,786
20060512,787
20060515,775
20060516,772
20060517,770
20060518,761
20060519,758
20060522,762
20060523,753
20060524,763
20060525,759
20060526,762
20060529,774
20060530,779
20060531,766
20060601,772
20060602,779
20060605,776
20060606,772
20060607,763
20060608,765
20060609,754
20060612,754
20060613,746
20060614,746
20060615,747
20060616,760
20060619,762
20060620,761
20060621,757
20060622,763
20060623,764
20060626,769
20060627,771
20060628,766
20060629,772
20060630,781
20060703,782
20060704,790
20060705,797
20060706,794
20060707,798
20060710,789
20060711,790
20060712,794
20060713,796
20060714,783
20060718,779
20060719,780
20060720,796